Location: North Evanston
(42.0634°N, 87.6976°W)
Time: 10:38:24
(UTC+00:00)

Vanguard 2 Rocket - Pass Details

Date: 10 May 2026
Orbit: 553 x 3286 km, 32.9° (Epoch: 11 June)

Event Time Altitude Azimuth Distance (km) Brightness Sun altitude
Rises 00:10:03 0° 280° (W) 7,265 13.9 7.6°
Reaches altitude 10° 00:15:44 10° 273° (W) 6,183 13.1 6.6°
Maximum altitude 00:31:26 34° 219° (SW) 3,859 10.4 3.8°
Drops below altitude 10° 00:42:54 10° 160° (SSE) 4,494 10.1 1.8°
Sets 00:46:18 0° 151° (SSE) 5,130 10.3 1.3°
